User: anonymous   Login
Location: Unspecified
(0.0000°N, 0.0000°E)
Time: 15:53:33
(UTC+00:00)
Language:

PERSEUS M1 - Orbit

View from above orbital plane
View from above orbital plane
View from above satellite
View from above satellite

Ground track
Ground track

The orbit data is extracted from the following two-line orbital elements,

1 40039U 14033AF  21336.74910763  .00000372  00000-0  48320-4 0  9992
2 40039  97.8842 253.2684 0014388   8.1264 352.0182 14.86387022403785
Epoch (UTC): 02 December 2021 17:58:42
Eccentricity: 0.0014388
inclination: 97.8842°
perigee height: 599 km
apogee height: 619 km
right ascension of ascending node: 253.2684°
argument of perigee: 8.1264°
revolutions per day: 14.86387022
mean anomaly at epoch: 352.0182°
orbit number at epoch: 40378

The dashed part of the orbit path shows where the satellite is in the earth's shadow,  

DLR